Погода в Бабякове

Россия / Воронежская область     51°41′14″N   39°22′11″E
темп.,
°C
ветер,
м/с
пор.,
м/с
влажн.,
%
обл.,
%
осадки,
мм/ч
давл.,
гПа
погр.,
м
11 мая, вт
вт1100:00+9ссв71692100 0.0 1016625
03:00+9ссв7189297 0.0 1015633
06:00+10св61789100 0.0 1016713
09:00+9вюв41090100 0.3 1018639
12:00+11в596798 0.3 10201508
15:00+14вюв7104926 0.3 10211737
18:00+12в6126999 0.1 10231358
21:00+9вюв5107629 0.3 1025848
12 мая, ср
ср1200:00+7всв398681 0.0 1025289
03:00+7всв31081100 0.0 1024309
06:00+8св31082100 0.0 1024377
09:00+11всв5868100 0.0 1022710
12:00+13всв4567100 0.5 10201033
15:00+14в4759100 1.4 10191625
18:00+13в5106888 0.3 10181068
21:00+12вюв4128071 0.6 1018682
13 мая, чт
чт1300:00+10юв379295 0.1 1019204
03:00+9вюв239498 0.1 101971
06:00+10в2487100 0.0 1019115
09:00+16юв126217 0.0 1017504
12:00+20юв2346100 0.0 10171445
15:00+20юв344799 0.0 10161718
18:00+20юв345343 0.0 10161247
21:00+16в25746 0.0 101698
14 мая, пт
пт1400:00+14вюв278986 0.0 1017173
03:00+14в31088100 0.0 1016235
06:00+14вюв3109099 0.1 1016293
09:00+20юв5966100 0.1 1015586
12:00+25юв595039 0.0 10141473
15:00+26ююв584927 0.0 10131728
18:00+25ююв485745 0.0 10121217
21:00+20вюв388639 1.1 1012167
15 мая, сб
сб1500:00+18юв28905 0.0 1012186
03:00+16юв259030 0.0 1011122
06:00+16юв278999 0.0 1011233
09:00+18вюв478771 1.4 1010279
12:00+25ю58527 0.2 10111280
15:00+26ююз58475 0.2 10111810
18:00+22ю4767100 1.4 1010701
21:00+18юз3786100 3.4 1010206